Regional Weather Roundup
Issued by NWS Raleigh/Durham, NC

Home | Current Version | Previous Version | Text Only | Print | Product List | Glossary On
Versions: 1 2 3 4 5 6 7 8 9 10 11 12 13 14 15 16 17 18 19 20 21 22 23 24 25 26 27 28 29 30 31 32 33 34 35 36 37 38 39 40 41 42 43 44 45 46 47 48 49 50
000
ASUS42 KRAH 191610
RWRRAH
NORTH CAROLINA WEATHER ROUNDUP
NATIONAL WEATHER SERVICE RALEIGH NC
1200 PM EDT FRI SEP 19 2014

NOTE: "FAIR" INDICATES FEW OR NO CLOUDS BELOW 12,000 FEET WITH NO
SIGNIFICANT WEATHER AND/OR OBSTRUCTIONS TO VISIBILITY.

NCZ001-053-055-056-065-067-191700-
WESTERN NORTH CAROLINA

CITY           SKY/WX    TMP DP  RH WIND       PRES   REMARKS
ASHEVILLE      NOT AVBL
JEFFERSON      CLOUDY    64  59  85 SE3       30.25S
HICKORY        CLOUDY    71  63  75 E7        30.19
RUTHERFORDTON  RAIN      68  65  90 S6        30.19S
MOUNT AIRY     NOT AVBL
BOONE          PTSUNNY   64  58  82 SE3       30.25R
$$

NCZ021-022-025-041-071-084-088-191700-
CENTRAL NORTH CAROLINA

CITY           SKY/WX    TMP DP  RH WIND       PRES   REMARKS
CHARLOTTE      NOT AVBL
GREENSBORO     CLOUDY    71  57  61 E9        30.20S
WINSTON-SALEM  CLOUDY    68  61  78 NE6       30.22R
RALEIGH-DURHAM MOSUNNY   77  56  48 E12G22    30.20R
FORT BRAGG     MOSUNNY   76  58  54 E9        30.16S
FAYETTEVILLE   PTSUNNY   76  58  53 E9        30.16S
BURLINGTON     CLOUDY    75  57  53 E5        30.20S
LAURINBURG     PTSUNNY   77  57  50 E12       30.15F
$$

NCZ011-015-027-028-043-044-047-080-103-191700-
NORTHEASTERN NORTH CAROLINA

CITY           SKY/WX    TMP DP  RH WIND       PRES   REMARKS
ROCKY MT-WILSO SUNNY     77  57  50 E8        30.20R
GREENVILLE     SUNNY     77  61  57 NE12      30.20S
WASHINGTON     MOSUNNY   76  59  55 E12       30.19S
ELIZABETH CITY NOT AVBL
MANTEO         PTSUNNY   75  58  56 NE15G21   30.21S
CAPE HATTERAS  PTSUNNY   76  63  64 NE13G25   30.17S
$$

NCZ078-087-090-091-093-098-101-191700-
SOUTHEASTERN NORTH CAROLINA

CITY           SKY/WX    TMP DP  RH WIND       PRES   REMARKS
LUMBERTON      MOSUNNY   80  57  45 E12       30.14S
GOLDSBORO      MOSUNNY   78  63  58 E12       30.16S
KINSTON        MOSUNNY   79  55  44 NE16      30.19R
KENANSVILLE    MOSUNNY   78  55  44 E6        30.17S
NEW BERN       MOSUNNY   79  61  53 E13       30.18S
CHERRY POINT   LGT RAIN  79  61  53 E16       30.17S
BEAUFORT       PTSUNNY   80  64  58 NE12G21   30.15S
JACKSONVILLE   MOSUNNY   78  63  59 E16       30.15S
WILMINGTON     PTSUNNY   77  66  68 E16G23    30.13S
$$



USA.gov is the U.S. government's official web portal to all federal, state and local government web resources and services.